Weather History for LFSB - February, 2013

Change the Weather History Date:

Thursday, February 28, 2013

  Actual Average Record
Temperature  
Mean Temperature 36 °F -  
Max Temperature 43 °F 51 °F 60 °F (2009)
Min Temperature 28 °F 34 °F 10 °F (2005)
Degree Days  
Heating Degree Days 30    
Moisture  
Dew Point 32 °F    
Average Humidity 87    
Maximum Humidity 100    
Minimum Humidity 61    
Precipitation  
Precipitation 0.00 in - - ()
Sea Level Pressure  
Sea Level Pressure 30.23 in    
Wind  
Wind Speed 5 mph ()    
Max Wind Speed 8 mph    
Max Gust Speed -    
Visibility 3.6 miles    
Events      
Averages and records for this station are not official NWS values.
T = Trace of Precipitation, MM = Missing Value Source: Averaged Metar Reports

Daily Weather History Graph

Daily Weather History Graph

Search for Another Location

Airport or City:

Trip Planner

Search our weather history database for the weather conditions in past years. The results will help you decide how hot, cold, wet, or windy it might be!

Date:

Astronomy

Feb. 28, 2013 Rise Set
Actual Time 7:12 AM CET 6:13 PM CET
Civil Twilight 6:41 AM CET 6:44 PM CET
Nautical Twilight 6:05 AM CET 7:19 PM CET
Astronomical Twilight 5:30 AM CET 7:55 PM CET
Moon 9:40 PM CET (2/28) 7:57 AM CET (2/28)
Length of Visible Light 12h 02m
Length of Day
11h 00m
Waning Gibbous, 92% of the Moon is Illuminated
Feb 28
Waning Gibbous
Mar 4
Last Quarter
Mar 11
New
Mar 19
First Quarter
Mar 27
Full

Hourly Weather History & Observations

Time (CET) Temp. Windchill Dew Point Humidity Pressure Visibility Wind Dir Wind Speed Gust Speed Precip Events Conditions
12:00 AM 33.8 °F 29.6 °F 32.0 °F 93% 30.27 in 3.7 mi NW 4.6 mph - N/A   Mostly Cloudy
12:30 AM 33.8 °F 29.6 °F 32.0 °F 93% 30.27 in 3.7 mi NW 4.6 mph - N/A   Overcast
1:00 AM 34 °F - 32 °F 90% 30.32 in 3 mi NW 4.6 mph - -   Clear
1:00 AM 33.8 °F 29.6 °F 32.0 °F 93% 30.27 in 3.7 mi NW 4.6 mph - N/A   Overcast
1:30 AM 33.8 °F 29.6 °F 32.0 °F 93% 30.27 in 3.7 mi WNW 4.6 mph - N/A   Overcast
2:00 AM 33.8 °F 28.6 °F 32.0 °F 93% 30.27 in 3.1 mi NW 5.8 mph - N/A   Overcast
2:30 AM 33.8 °F 28.6 °F 32.0 °F 93% 30.24 in 3.1 mi NW 5.8 mph - N/A   Overcast
3:00 AM 33.8 °F 28.6 °F 32.0 °F 93% 30.24 in 3.1 mi NW 5.8 mph - N/A   Overcast
3:30 AM 33.8 °F 27.7 °F 32.0 °F 93% 30.24 in - NW 6.9 mph - N/A   Overcast
4:00 AM 33.8 °F 28.6 °F 32.0 °F 93% 30.24 in 2.5 mi NW 5.8 mph - N/A   Overcast
4:30 AM 33.8 °F 28.6 °F 32.0 °F 93% 30.21 in 2.5 mi NW 5.8 mph - N/A   Overcast
5:00 AM 33.8 °F 28.6 °F 32.0 °F 93% 30.21 in 2.2 mi NW 5.8 mph - N/A   Overcast
5:30 AM 33.8 °F 28.6 °F 32.0 °F 93% 30.21 in 2.2 mi NW 5.8 mph - N/A   Overcast
6:00 AM 33.8 °F 29.6 °F 32.0 °F 93% 30.21 in 1.9 mi NW 4.6 mph - N/A   Overcast
6:30 AM 33.8 °F 29.6 °F 32.0 °F 93% 30.21 in 1.9 mi WNW 4.6 mph - N/A   Overcast
7:00 AM 33 °F - 32 °F 93% 30.28 in 2 mi NW 4.6 mph - -   Mist
7:00 AM 33.8 °F 30.8 °F 32.0 °F 93% 30.21 in 1.6 mi NW 3.5 mph - N/A   Overcast
7:30 AM 33.8 °F 29.6 °F 32.0 °F 93% 30.24 in 1.6 mi NW 4.6 mph - N/A   Overcast
8:00 AM 33.8 °F 28.6 °F 32.0 °F 93% 30.24 in 1.6 mi NW 5.8 mph - N/A   Overcast
8:30 AM 33.8 °F 28.6 °F 32.0 °F 93% 30.24 in 1.6 mi NW 5.8 mph - N/A   Overcast
9:00 AM 33.8 °F 28.6 °F 32.0 °F 93% 30.24 in 0.9 mi NW 5.8 mph - N/A   Overcast
9:30 AM 33.8 °F 29.6 °F 32.0 °F 93% 30.24 in 1.2 mi NNW 4.6 mph - N/A   Overcast
10:00 AM 33.8 °F 29.6 °F 32.0 °F 93% 30.24 in 1.6 mi NNW 4.6 mph - N/A   Overcast
10:30 AM 33.8 °F 30.8 °F 33.8 °F 100% 30.24 in 1.6 mi North 3.5 mph - N/A   Overcast
11:00 AM 35.6 °F 31.7 °F 33.8 °F 93% 30.24 in 1.6 mi NNW 4.6 mph - N/A   Overcast
11:30 AM 35.6 °F 32.8 °F 33.8 °F 93% 30.24 in 2.5 mi Variable 3.5 mph - N/A   Overcast
12:00 PM 37.4 °F - 35.6 °F 93% 30.24 in 3.1 mi Variable 2.3 mph - N/A   Overcast
12:30 PM 39.2 °F - 37.4 °F 93% 30.24 in 3.7 mi Variable 2.3 mph - N/A   Mostly Cloudy
1:00 PM 41 °F - 36 °F 75% 30.27 in 4 mi SSW 2.3 mph - -   Mostly Cloudy
1:00 PM 41.0 °F - 35.6 °F 81% 30.21 in 4.3 mi Variable 2.3 mph - N/A   Mostly Cloudy
1:30 PM 42.8 °F 41.1 °F 33.8 °F 70% 30.21 in 5.6 mi Variable 3.5 mph - N/A   Mostly Cloudy
2:00 PM 41.0 °F 38.0 °F 32.0 °F 70% 30.21 in 6.2 mi ENE 4.6 mph - N/A   Mostly Cloudy
2:30 PM 42.8 °F 40.1 °F 33.8 °F 70% 30.21 in 6.2 mi North 4.6 mph - N/A   Mostly Cloudy
3:00 PM 42.8 °F 40.1 °F 32.0 °F 66% 30.21 in 6.2 mi North 4.6 mph - N/A   Mostly Cloudy
3:30 PM 42.8 °F 40.1 °F 32.0 °F 66% 30.21 in 6.2 mi North 4.6 mph - N/A   Scattered Clouds
4:00 PM 42.8 °F 39.3 °F 30.2 °F 61% 30.21 in 6.2 mi NE 5.8 mph - N/A   Scattered Clouds
4:30 PM 42.8 °F 39.3 °F 30.2 °F 61% 30.21 in 6.2 mi ENE 5.8 mph - N/A   Scattered Clouds
5:00 PM 41.0 °F 36.4 °F 32.0 °F 70% 30.21 in 6.2 mi North 6.9 mph - N/A   Partly Cloudy
5:30 PM 39.2 °F 33.6 °F 32.0 °F 75% 30.18 in 6.2 mi North 8.1 mph - N/A   Partly Cloudy
6:00 PM 39.2 °F 34.2 °F 30.2 °F 70% 30.21 in - North 6.9 mph - N/A   Clear
6:30 PM 35.6 °F 29.9 °F 30.2 °F 81% 30.21 in - North 6.9 mph - N/A   Clear
7:00 PM 36 °F - 31 °F 77% 30.26 in 6 mi NNW 5.8 mph - -   Clear
7:00 PM 35.6 °F 29.9 °F 32.0 °F 87% 30.21 in - NNW 6.9 mph - N/A   Clear
7:30 PM 33.8 °F 29.6 °F 30.2 °F 87% 30.21 in - NW 4.6 mph - N/A   Clear
8:00 PM 32.0 °F 26.4 °F 28.4 °F 87% 30.21 in 5.6 mi NW 5.8 mph - N/A   Unknown
8:30 PM 32.0 °F 26.4 °F 30.2 °F 93% 30.21 in 5.0 mi NW 5.8 mph - N/A   Partly Cloudy
9:04 PM 30.2 °F 24.3 °F 28.4 °F 93% 30.21 in 5.0 mi NNW 5.8 mph - N/A   Partly Cloudy
9:30 PM 30.2 °F 24.3 °F 28.4 °F 93% 30.21 in 5.0 mi NNW 5.8 mph - N/A   Unknown
10:00 PM 28.4 °F 22.2 °F 26.6 °F 93% 30.21 in 3.7 mi NW 5.8 mph - N/A   Unknown
10:30 PM 30.2 °F 24.3 °F 28.4 °F 93% 30.21 in 3.7 mi WNW 5.8 mph - N/A   Unknown
11:00 PM 30.2 °F - 28.4 °F 93% 30.21 in 3.7 mi Variable 2.3 mph - N/A   Unknown
11:30 PM 30.2 °F - 28.4 °F 93% 30.21 in 2.5 mi Variable 1.2 mph - N/A   Mostly Cloudy